Regional Weather Roundup
Issued by NWS

Home | Current Version | Previous Version | Text Only | Print | Product List | Glossary On
Versions: 1 2 3 4 5 6 7 8 9 10 11 12 13 14 15 16 17 18 19 20 21 22 23 24 25 26 27 28 29 30 31 32 33 34 35 36 37 38 39 40 41 42 43 44 45 46 47 48 49 50
000
ASUS43 KTOP 222108
RWRKS

WEATHER ROUNDUP FOR KANSAS
NATIONAL WEATHER SERVICE GOODLAND KS
400 PM CDT MON SEP 22 2014

NOTE:  "FAIR" INDICATES FEW OR NO CLOUDS BELOW 12,000 FEET WITH NO
SIGNIFICANT WEATHER AND/OR OBSTRUCTIONS TO VISIBILITY.

KSZ001>006-013>018-027>032-041>047-222200-
NORTHWEST KANSAS

CITY           SKY/WX    TMP DP  RH WIND       PRES   REMARKS
GOODLAND       CLOUDY    76  51  41 S28G36    30.14F
HAYS           MOSUNNY   75  45  33 SE15      30.20F
HILL CITY      MOSUNNY   81  45  28 S13G23    30.18F
RUSSELL        MOSUNNY   76  47  35 S13       30.20F
$$

KSZ061>065-074>080-084>089-222200-
SOUTHWEST KANSAS

CITY           SKY/WX    TMP DP  RH WIND       PRES   REMARKS
DODGE CITY     MOSUNNY   80  42  25 S18G25    30.21F
ELKHART          N/A     79  56  45 S15         N/A
GARDEN CITY    MOSUNNY   77  45  32 S17       30.18F
GREAT BEND     MOSUNNY   79  45  29 SE13      30.20F
LIBERAL        MOSUNNY   79  48  34 S18       30.20F
PRATT          SUNNY     79  37  22 SE9G16    30.23F
$$

KSZ066>073-081>083-090>101-222200-
SOUTHEAST KANSAS

CITY           SKY/WX    TMP DP  RH WIND       PRES   REMARKS
CHANUTE        SUNNY     73  51  46 CALM      30.25F
COFFEYVILLE    SUNNY     75  52  44 VRB3      30.23F
HUTCHINSON     SUNNY     78  44  29 VRB6      30.22F
MEDICINE LODGE   N/A     79  42  26 VRB5      30.20F
NEWTON         SUNNY     75  45  33 SW5       30.25F
PARSONS        MOSUNNY   75  52  44 VRB6      30.25F
WICHITA INTL   MOSUNNY   79  43  27 SE6       30.21F
WICHITA JABRA  SUNNY     77  42  28 E6        30.22F
WICHITA MCCONL SUNNY     78  42  27 VRB6      30.22F
WINFIELD       MOSUNNY   75  49  39 SE7       30.24F
$$

KSZ007>012-019>026-033>040-048>060-102>105-222200-
NORTHEAST KANSAS

CITY           SKY/WX    TMP DP  RH WIND       PRES   REMARKS
CONCORDIA      MOSUNNY   73  50  44 S10       30.23F
EMPORIA        MOSUNNY   73  51  46 E6        30.24F
LAWRENCE       SUNNY     73  51  46 VRB6      30.24F
MANHATTAN      MOSUNNY   76  49  38 S9        30.23F
MARYSVILLE     MOSUNNY   73  50  43 S7        30.23S
OLATHE IND     SUNNY     73  51  46 S3        30.26F
OLATHE EXE     SUNNY     72  53  51 S8        30.25F
SALINA         MOSUNNY   76  48  37 VRB5      30.22F
TOPEKA BILLARD SUNNY     77  48  35 MISG      30.24F
TOPEKA FORBES  SUNNY     74  49  41 CALM      30.24F
$$



USA.gov is the U.S. government's official web portal to all federal, state and local government web resources and services.